Iron Mountain, MI

12:19 PM CDT on August 20, 2017 (GMT -0500)
Ford

Weather History for KIMT - October, 2012

Change the Weather History Date:

Monday, October 8, 2012

  Actual Average Record
Temperature  
Mean Temperature 42 °F -  
Max Temperature 55 °F 57 °F 82 °F (2007)
Min Temperature 28 °F 38 °F 21 °F (1989)
Degree Days  
Heating Degree Days 24    
Moisture  
Dew Point 25 °F    
Average Humidity 47    
Maximum Humidity 64    
Minimum Humidity 35    
Precipitation  
Precipitation 0.00 in - - ()
Sea Level Pressure  
Sea Level Pressure 29.84 in    
Wind  
Wind Speed 9 mph (SSE)    
Max Wind Speed 22 mph    
Max Gust Speed 30 mph    
Visibility 10 miles    
Events      
Averages and records for this station are not official NWS values.
T = Trace of Precipitation, MM = Missing Value Source: NWS Daily Summary

Daily Weather History Graph

Daily Weather History Graph

Search for Another Location

Airport or City:

Trip Planner

Search our weather history database for the weather conditions in past years. The results will help you decide how hot, cold, wet, or windy it might be!

Date:

Astronomy

Oct. 08, 2012 Rise Set
Actual Time 7:00 AM CDT 6:18 PM CDT
Civil Twilight 6:30 AM CDT 6:48 PM CDT
Nautical Twilight 5:56 AM CDT 7:22 PM CDT
Astronomical Twilight 5:21 AM CDT 7:57 PM CDT
Moon No Moon Rise 2:26 PM CDT (10/8)
Length of Visible Light 12h 17m
Length of Day
11h 17m
Last Quarter, 46% of the Moon is Illuminated
Oct 8
Last Quarter
Oct 15
New
Oct 21
First Quarter
Oct 29
Full
Nov 6
Last Quarter

Hourly Weather History & Observations

Time (CDT) Temp. Windchill Dew Point Humidity Pressure Visibility Wind Dir Wind Speed Gust Speed Precip Events Conditions
12:54 AM 30.9 °F 27.5 °F 18.0 °F 59% 29.98 in 10.0 mi SE 3.5 mph - N/A   Clear
1:54 AM 28.9 °F 25.2 °F 17.1 °F 61% 29.98 in 10.0 mi SE 3.5 mph - N/A   Clear
2:54 AM 28.9 °F 25.2 °F 18.0 °F 64% 29.96 in 10.0 mi ESE 3.5 mph - N/A   Clear
3:54 AM 30.0 °F 26.5 °F 18.0 °F 61% 29.95 in 10.0 mi SE 3.5 mph - N/A   Clear
4:54 AM 30.9 °F 27.5 °F 18.0 °F 59% 29.94 in 10.0 mi SE 3.5 mph - N/A   Clear
5:54 AM 30.9 °F 27.5 °F 19.0 °F 61% 29.94 in 10.0 mi ESE 3.5 mph - N/A   Clear
6:54 AM 30.0 °F 23.2 °F 19.0 °F 64% 29.94 in 10.0 mi SSE 6.9 mph - N/A   Clear
7:54 AM 34.0 °F 28.8 °F 19.9 °F 56% 29.94 in 10.0 mi SE 5.8 mph - N/A   Clear
8:54 AM 39.0 °F 32.8 °F 21.0 °F 49% 29.92 in 10.0 mi South 9.2 mph - N/A   Clear
9:54 AM 44.1 °F 38.1 °F 21.9 °F 42% 29.90 in 10.0 mi South 11.5 mph - N/A   Clear
10:54 AM 50.0 °F - 25.0 °F 38% 29.88 in 10.0 mi South 11.5 mph 19.6 mph N/A   Mostly Cloudy
11:54 AM 51.1 °F - 26.1 °F 38% 29.87 in 10.0 mi South 17.3 mph 28.8 mph N/A   Overcast
12:54 PM 55.0 °F - 28.0 °F 35% 29.84 in 10.0 mi SSW 21.9 mph 29.9 mph N/A   Overcast
1:54 PM 55.9 °F - 28.9 °F 36% 29.81 in 10.0 mi South 15.0 mph 21.9 mph N/A   Overcast
2:54 PM 55.0 °F - 28.9 °F 37% 29.80 in 10.0 mi South 12.7 mph - N/A   Overcast
3:54 PM 54.0 °F - 30.9 °F 41% 29.78 in 10.0 mi South 18.4 mph 26.5 mph 0.00 in   Overcast
4:54 PM 54.0 °F - 30.0 °F 40% 29.75 in 10.0 mi South 19.6 mph 27.6 mph N/A   Overcast
5:54 PM 55.0 °F - 30.0 °F 38% 29.75 in 10.0 mi South 16.1 mph 25.3 mph N/A   Overcast
6:54 PM 53.1 °F - 30.0 °F 41% 29.75 in 10.0 mi South 11.5 mph 25.3 mph N/A   Scattered Clouds
7:54 PM 53.1 °F - 30.0 °F 41% 29.74 in 10.0 mi SSE 15.0 mph 20.7 mph 0.00 in   Overcast
8:54 PM 54.0 °F - 30.9 °F 41% 29.73 in 10.0 mi South 12.7 mph 20.7 mph 0.00 in   Overcast
9:54 PM 54.0 °F - 30.9 °F 41% 29.71 in 10.0 mi South 15.0 mph 23.0 mph N/A   Mostly Cloudy
10:54 PM 53.1 °F - 30.9 °F 43% 29.70 in 10.0 mi South 15.0 mph 25.3 mph N/A   Scattered Clouds
11:54 PM 52.0 °F - 30.9 °F 45% 29.69 in 10.0 mi South 16.1 mph 28.8 mph N/A   Clear